sat.trackr.live / text

‹ back to catalog

STARLINK-34774

NORAD 66485 · 2025-263A

PAYLOAD ACTIVE UNKNOWN

§ Identity

Operator
Country
US
Launch date
2025-11-15
Launch site
AFETR
Launch vehicle
Mass (kg)
RCS (m²)

Purposes: comms

External: N2YO · Heavens-Above · Gunter

§ Orbital elements

Epoch: 2026-05-24T16:16:38.162208Z

Period
94.27 min
Inclination
43.0007°
Eccentricity
0.0003036
Mean motion
15.27583963 rev/d
Perigee alt
481.0 km
Apogee alt
485.1 km
Semi-major
6,861.2 km
B*
5.1553e-4
RAAN
281.2771°
Arg perigee
70.3333°
Mean anomaly
289.7846°
Rev number
3,052

§ Raw data

STARLINK-347741 66485U 25263A   26144.67821947  .00013953  00000+0  51553-3 0  99902 66485  43.0007 281.2771 0003036  70.3333 289.7846 15.27583963 30527

JSON: /api/v1/satellites/66485 · /tle

For live sub-satellite position, see the globe view (requires WebGL).

§ Visibility from observer

Set your observer location to see the next 7 days of passes ≥ 10°. The values pass through the URL so the page stays shareable.

No JS? Fill the form by hand. The geolocation button needs JavaScript.